Location: G�ndlingen
(48.0142°N, 7.6396°E)
Time: 19:18:03
(UTC+00:00)

Resurs 01 Rocket - Pass Details

Date: 05 July 2020
Orbit: 635 x 644 km, 98.0° (Epoch: 12 August)

Event Time Altitude Azimuth Distance (km) Brightness Sun altitude
Rises 20:45:54 0° 194° (SSW) 2,928 4.7 -9.9°
Reaches altitude 10° 20:48:21 10° 206° (SSW) 2,023 3.9 -10.1°
Maximum altitude 20:52:08 28° 265° (W) 1,209 3.4 -10.5°
Drops below altitude 10° 20:55:57 10° 325° (NW) 2,034 5.8 -10.9°
Sets 20:58:26 0° 337° (NNW) 2,947 6.8 -11.2°
